Temperature
4 4 4 4 4 4 4 4 4 3 3 4 4 4 4 4 4 4 4 4 4 5 5 5 5 5 5 5 5 5 5 5 5 5 5 5 5 5
4 4 4 4 4 4 4 4 4 4 3 3 3 3 3 3 3 4 4 4 4 4 4 4 4 4 4 4 4 4 4 4 4 4 4 4 4 4
3 3 3 3 3 3 3 3 3 3 3 3 3 3 3 3 3 3 3 3 4 4 4 4 4 4 4 4 4 4 4 4 4 4 4 4 4 4
3 3 3 3 3 3 3 3 3 3 3 2 2 2 2 2 2 3 3 3 3 3 3 4 3 3 3 3 3 3 3 3 3 3 3 3 3 3
2 2 2 2 2 3 3 3 3 2 2 2 2 2 2 2 2 2 2 3 3 3 3 3 3 3 3 3 3 3 3 3 3 3 3 3 3 3
2 2 2 2 2 2 2 2 2 2 2 1 1 1 1 1 1 1 2 2 2 2 2 2 2 2 3 2 2 2 2 2 2 2 2 2 2 2
1 1 2 1 1 1 2 2 2 1 1 1 1 1 1 1 1 1 1 1 1 2 2 2 2 2 2 2 2 2 2 2 2 2 2 2 2 2
1 1 1 1 1 1 1 1 1 1 1 1 0 0 0 0 0 0 0 0 0 1 1 1 1 1 1 1 1 1 2 2 2 2 2 2 2 2
0 0 0 0 0 1 1 1 1 1 1 1 0 0 0 0 0 0 -0 0 -0 0 0 1 1 1 1 1 1 1 1 1 1 1 1 1 1 1
-0 -0 -0 0 0 0 0 0 0 0 0 0 0 0 -0 -0 -0 -0 -0 -0 -0 -0 -0 -0 0 0 1 1 1 1 1 1 1 1 1 1 1 1
-0 -0 -0 -0 -0 -0 -0 -0 -0 -0 -0 -0 -0 -0 -0 -0 -0 -1 -1 -1 -1 -1 -1 -1 -1 -0 -0 0 0 0 0 0 1 0 0 0 1 1
-1 -1 -1 -1 -1 -1 -1 -1 -1 -1 -1 -1 -1 -1 -1 -1 -1 -1 -1 -1 -1 -2 -1 -1 -1 -1 -1 -1 -1 -0 -0 0 0 0 0 0 0 0
-1 -1 -1 -1 -1 -1 -1 -1 -1 -1 -1 -1 -1 -1 -1 -1 -1 -1 -2 -2 -2 -2 -2 -2 -2 -2 -2 -2 -1 -1 -1 -1 -0 -0 -0 0 0 -0
-2 -1 -2 -2 -2 -1 -1 -1 -1 -2 -2 -1 -2 -2 -2 -2 -2 -2 -2 -2 -2 -2 -2 -2 -2 -2 -2 -2 -2 -1 -1 -1 -1 -1 -0 -0 0 0
-2 -2 -2 -2 -2 -2 -2 -2 -2 -2 -2 -2 -2 -2 -2 -3 -2 -2 -2 -2 -2 -2 -2 -2 -2 -2 -2 -2 -2 -2 -2 -2 -1 -1 -1 -1 -0 -0
-2 -2 -2 -2 -2 -2 -2 -2 -2 -2 -2 -3 -3 -3 -3 -3 -3 -3 -3 -3 -2 -2 -2 -2 -2 -2 -2 -2 -2 -2 -2 -2 -2 -2 -2 -1 -1 -0
-3 -3 -3 -3 -3 -3 -3 -3 -3 -3 -3 -3 -3 -3 -3 -3 -3 -3 -3 -3 -3 -3 -3 -3 -3 -2 -3 -2 -2 -2 -2 -2 -2 -2 -2 -1 -1 -1
-3 -3 -3 -3 -3 -3 -3 -3 -3 -3 -3 -3 -4 -4 -4 -4 -4 -4 -4 -4 -3 -3 -3 -3 -3 -3 -3 -3 -3 -3 -3 -3 -2 -2 -2 -2 -1 -1
-3 -3 -3 -4 -4 -4 -4 -4 -4 -4 -4 -4 -4 -4 -4 -4 -4 -4 -4 -4 -4 -4 -4 -4 -4 -4 -4 -4 -3 -3 -3 -3 -3 -2 -2 -2 -2 -1
-4 -4 -4 -4 -4 -4 -4 -4 -4 -4 -4 -4 -4 -4 -4 -5 -5 -4 -4 -4 -4 -4 -4 -4 -4 -4 -4 -4 -4 -3 -3 -3 -3 -3 -2 -2 -2 -1
-4 -4 -4 -4 -4 -4 -4 -4 -4 -5 -5 -5 -5 -5 -5 -5 -5 -5 -5 -5 -5 -4 -4 -4 -4 -4 -4 -4 -4 -4 -3 -3 -3 -3 -3 -2 -2 -2
-5 -4 -5 -5 -5 -5 -5 -5 -5 -5 -5 -5 -5 -5 -5 -5 -5 -5 -5 -5 -5 -5 -5 -5 -4 -4 -4 -4 -4 -4 -4 -3 -3 -3 -3 -3 -3 -3
-5 -5 -5 -5 -5 -5 -5 -5 -5 -5 -5 -5 -5 -5 -5 -5 -5 -5 -5 -5 -5 -5 -5 -5 -5 -5 -5 -5 -4 -4 -4 -3 -3 -3 -2 -3 -3 -2
Wind_Speed
4 4 4 3 3 3 3 3 3 2 3 2 1 1 3 3 5 5 5 6 7 7 7 7 8 8 8 7 8 7 6 6 7 7 8 9 9 9
4 4 4 3 3 3 2 2 2 3 2 2 2 2 2 4 5 5 5 7 6 6 6 7 8 8 7 7 7 7 6 6 7 7 8 9 8 9
4 4 4 4 3 3 2 2 2 2 2 2 1 1 2 2 4 4 5 4 4 5 6 7 7 7 7 7 7 7 5 5 6 7 8 8 9 9
4 4 4 3 3 3 2 2 2 2 2 2 2 2 2 2 3 4 4 4 4 6 6 7 7 7 8 7 7 7 6 5 6 7 7 8 8 9
3 3 3 3 3 2 2 2 2 1 1 1 2 2 2 2 3 4 4 3 5 6 6 7 7 7 7 8 8 8 6 5 5 6 7 8 8 8
2 2 2 2 3 3 2 2 2 1 1 1 1 1 1 2 2 3 4 3 3 5 6 7 8 7 7 8 9 9 7 5 6 6 7 7 7 7
1 1 1 2 2 1 1 2 2 2 2 1 1 1 1 2 3 3 3 3 4 3 4 5 5 4 5 8 8 9 9 7 6 6 6 7 7 7
1 0 0 1 2 2 2 1 1 2 2 2 1 1 2 2 2 2 3 3 3 3 4 4 3 3 4 5 8 9 10 9 8 7 7 7 7 7
1 1 0 1 1 1 1 2 2 1 0 2 2 2 2 2 2 2 3 3 3 4 4 3 2 3 4 6 9 9 10 10 9 9 8 7 7 7
2 2 1 1 1 0 1 1 1 1 1 0 1 2 2 2 1 1 1 2 3 3 3 2 2 3 5 6 8 9 10 11 10 9 9 8 8 8
1 1 1 2 1 1 2 2 1 2 3 3 2 2 2 2 2 2 1 2 3 3 2 2 2 3 4 4 6 10 11 12 11 10 9 9 9 8
0 0 0 1 0 1 2 2 1 1 2 3 3 4 3 3 4 2 1 1 2 2 3 3 3 3 3 3 4 7 8 10 12 12 10 9 9 6
1 0 0 1 1 2 2 2 1 2 2 2 2 2 3 3 4 4 3 1 1 2 2 2 2 2 2 3 4 5 6 6 8 8 10 10 10 7
1 1 1 2 2 3 3 3 4 3 2 2 2 2 3 3 3 4 4 4 2 2 3 3 2 2 3 3 4 4 5 6 5 5 7 10 9 9
2 3 3 4 4 3 4 5 4 2 2 2 2 2 2 2 3 3 4 5 4 4 5 4 2 2 2 3 3 4 4 4 5 5 5 6 5 6
2 3 5 5 4 4 4 4 3 2 2 2 2 1 2 2 3 3 3 3 4 4 6 6 4 3 2 3 3 4 3 3 4 5 5 5 5 6
3 3 2 2 2 2 2 2 2 2 3 2 2 2 2 3 3 3 3 3 3 3 5 5 6 4 3 2 2 3 3 3 4 5 5 5 5 5
4 3 2 2 2 2 1 2 2 2 2 2 2 1 2 2 2 3 3 3 3 3 4 4 5 5 4 3 2 2 3 4 5 5 4 5 5 5
3 2 2 1 1 1 1 2 1 1 1 1 1 1 1 2 2 2 2 3 3 3 3 4 4 4 4 5 4 4 3 5 5 5 4 4 5 6
2 2 2 2 1 1 2 2 2 2 2 1 1 1 1 1 1 2 2 2 3 3 3 4 4 4 3 3 3 4 7 4 4 4 4 4 4 6
1 2 2 2 1 1 2 2 2 1 1 1 1 1 1 1 1 1 2 3 3 2 3 4 4 6 3 2 3 4 5 7 5 3 4 4 4 4
1 1 1 1 1 1 2 2 1 1 1 1 0 1 1 1 1 1 1 2 2 2 3 3 4 4 3 3 3 4 5 7 8 8 5 3 2 2
1 1 1 1 1 1 2 2 1 1 1 0 0 0 1 1 1 1 1 2 2 2 3 3 4 3 3 3 3 4 5 6 5 6 5 8 6 5
Wind_Direction
242 244 246 255 254 250 240 213 218 243 264 272 297 298 340 337 325 330 322 319 326 327 332 333 330 325 317 311 314 311 305 307 307 305 305 305 306 308
244 240 245 251 256 249 239 233 216 197 238 259 283 305 331 334 331 332 321 327 325 329 338 343 339 333 327 321 316 315 306 308 310 307 303 304 305 308
247 240 243 236 243 251 243 234 222 185 224 281 292 313 310 323 336 336 333 332 330 338 343 346 346 347 343 329 321 324 313 313 316 313 308 305 306 307
242 237 237 230 233 243 231 224 217 196 191 245 286 307 307 314 331 335 343 351 351 348 349 351 354 354 351 342 333 331 319 318 319 315 314 311 310 311
229 233 233 215 226 235 223 214 213 194 172 199 275 297 308 341 350 343 341 354 358 358 3 0 355 352 355 351 347 344 329 328 325 320 319 317 315 312
225 228 239 231 224 222 219 206 193 170 159 171 269 300 320 350 357 347 343 349 345 355 4 356 349 352 359 355 354 350 338 329 328 326 323 320 318 316
221 224 264 280 275 262 243 210 191 181 174 177 228 312 332 350 343 334 333 338 338 358 348 342 342 347 356 351 351 352 353 343 333 330 328 325 322 318
187 212 281 291 295 312 305 296 228 182 183 192 234 247 281 305 322 322 328 340 335 347 343 327 337 333 341 347 351 355 356 349 342 335 332 329 323 317
179 199 268 312 322 277 342 24 12 9 232 190 201 234 255 262 276 306 321 333 315 315 329 312 327 331 332 340 347 352 354 353 349 344 338 332 326 324
185 196 202 244 256 217 107 76 30 5 347 211 198 238 248 255 257 281 294 336 325 323 330 315 325 325 327 334 344 352 352 352 350 349 350 348 344 340
189 198 201 225 261 94 113 105 59 22 13 12 18 17 13 27 43 62 34 18 343 327 338 337 325 328 321 322 343 351 352 352 353 351 352 352 351 348
137 211 235 178 51 97 123 129 108 47 38 35 36 35 37 36 31 40 43 15 343 318 333 344 329 340 332 324 335 345 350 351 353 354 356 358 356 356
128 120 231 112 74 87 93 122 96 70 70 70 59 46 36 27 19 15 7 356 320 304 313 334 323 332 323 316 323 334 347 344 349 353 357 358 356 355
149 140 102 81 97 89 75 74 75 69 71 74 66 48 33 20 12 8 7 10 4 326 322 329 317 320 326 321 316 325 333 345 352 351 352 352 354 349
127 113 91 74 73 75 77 74 69 72 77 76 60 37 18 8 11 12 13 20 24 22 12 357 335 323 319 310 310 318 326 336 353 350 345 349 348 346
90 91 80 79 76 73 67 55 53 65 78 84 65 38 25 21 23 10 5 7 15 5 7 9 359 341 332 310 307 314 325 333 339 338 336 339 352 353
104 90 85 90 81 73 63 57 58 54 53 58 73 59 39 29 17 7 10 14 19 4 355 356 3 2 326 312 325 329 333 335 330 333 339 340 340 347
103 99 103 108 104 94 82 64 60 59 56 56 60 60 48 33 20 10 13 22 23 9 358 349 351 354 355 4 356 334 340 334 333 336 339 336 336 343
98 108 110 107 108 107 105 96 77 65 63 57 54 52 47 34 24 14 13 17 17 6 351 346 352 1 0 350 340 356 342 332 335 340 340 333 321 323
90 110 119 116 118 123 114 101 94 78 67 59 52 50 50 38 18 7 4 3 3 359 351 348 352 352 341 316 306 318 331 326 331 334 331 324 313 316
92 99 110 117 114 115 116 111 108 101 85 77 57 31 21 20 7 356 357 355 358 352 346 338 329 334 328 336 333 327 327 339 336 321 322 330 334 340
93 103 107 111 118 121 122 119 111 107 102 93 76 23 356 342 341 338 345 345 339 337 332 327 331 344 356 354 340 329 330 336 349 356 353 343 332 337
119 119 116 115 115 121 130 133 129 132 142 149 140 337 344 346 343 340 335 335 334 337 342 343 346 352 351 344 337 333 335 337 341 350 351 359 355 334
Height
1457 1457 1456 1456 1456 1456 1456 1456 1456 1453 1452 1451 1452 1452 1452 1451 1450 1450 1448 1447 1446 1446 1445 1445 1445 1444 1442 1442 1441 1440 1440 1439 1439 1438 1437 1437 1436 1435
1453 1452 1452 1452 1452 1452 1452 1452 1452 1451 1450 1449 1449 1449 1449 1448 1447 1446 1445 1444 1443 1442 1442 1441 1441 1439 1438 1438 1437 1436 1436 1435 1435 1434 1434 1433 1432 1431
1448 1448 1447 1448 1448 1448 1448 1448 1449 1448 1447 1446 1447 1447 1446 1445 1443 1443 1442 1440 1439 1439 1439 1438 1437 1436 1435 1434 1434 1433 1432 1431 1431 1431 1430 1429 1428 1427
1444 1444 1444 1444 1444 1445 1444 1445 1445 1445 1444 1443 1443 1443 1443 1442 1440 1439 1438 1437 1437 1436 1435 1435 1433 1433 1432 1431 1430 1429 1428 1427 1427 1427 1426 1425 1424 1423
1440 1440 1440 1440 1441 1441 1441 1442 1442 1442 1442 1441 1440 1441 1440 1439 1438 1436 1435 1434 1434 1433 1432 1432 1431 1430 1429 1428 1427 1426 1425 1424 1423 1423 1422 1421 1421 1420
1437 1437 1437 1437 1438 1438 1439 1439 1439 1439 1439 1439 1438 1438 1437 1436 1436 1434 1432 1431 1431 1430 1430 1430 1429 1427 1426 1424 1423 1423 1421 1421 1420 1419 1418 1418 1417 1417
1434 1434 1434 1435 1436 1436 1436 1436 1436 1436 1436 1435 1435 1435 1434 1434 1433 1432 1430 1429 1428 1428 1427 1427 1426 1424 1422 1422 1420 1419 1418 1417 1416 1415 1415 1414 1414 1413
1431 1431 1432 1433 1434 1434 1434 1434 1434 1434 1433 1433 1432 1432 1432 1432 1431 1430 1429 1427 1425 1426 1424 1423 1423 1421 1420 1419 1417 1416 1415 1414 1413 1412 1411 1410 1410 1409
1428 1429 1429 1430 1431 1431 1431 1432 1432 1432 1432 1432 1431 1430 1430 1430 1430 1428 1427 1425 1424 1423 1422 1420 1420 1418 1417 1416 1415 1414 1412 1411 1410 1409 1408 1407 1406 1406
1426 1427 1427 1427 1428 1428 1429 1429 1429 1429 1429 1429 1429 1429 1429 1428 1428 1428 1426 1424 1424 1423 1421 1418 1417 1416 1415 1414 1412 1411 1410 1408 1407 1405 1404 1404 1403 1402
1424 1425 1425 1425 1426 1426 1426 1426 1426 1427 1427 1427 1427 1427 1427 1427 1426 1425 1424 1423 1421 1420 1419 1417 1415 1413 1412 1411 1410 1409 1407 1406 1404 1403 1402 1401 1400 1399
1422 1423 1423 1423 1424 1424 1424 1424 1424 1424 1424 1424 1425 1425 1425 1425 1424 1424 1423 1422 1420 1419 1417 1416 1414 1412 1410 1409 1408 1407 1405 1404 1402 1401 1400 1399 1398 1397
1420 1420 1421 1422 1422 1422 1422 1422 1422 1422 1422 1423 1423 1423 1423 1423 1422 1422 1422 1421 1420 1418 1417 1415 1413 1412 1410 1408 1406 1405 1403 1402 1400 1399 1398 1397 1396 1395
1417 1418 1419 1420 1420 1420 1420 1421 1421 1421 1421 1421 1421 1421 1421 1421 1421 1421 1420 1419 1419 1418 1416 1415 1413 1412 1409 1407 1405 1403 1402 1400 1399 1397 1397 1396 1395 1393
1416 1417 1418 1418 1418 1418 1419 1419 1419 1419 1420 1420 1419 1419 1420 1420 1420 1419 1419 1418 1417 1416 1415 1414 1413 1411 1409 1407 1404 1402 1400 1399 1398 1397 1395 1394 1393 1391
1415 1415 1416 1417 1417 1417 1418 1418 1418 1419 1419 1419 1418 1419 1419 1419 1418 1418 1417 1416 1415 1414 1414 1413 1411 1410 1408 1406 1404 1401 1400 1399 1397 1396 1395 1393 1392 1390
1414 1415 1415 1416 1416 1416 1417 1417 1417 1418 1418 1418 1418 1418 1418 1417 1417 1417 1416 1415 1414 1413 1412 1411 1410 1409 1407 1405 1403 1401 1400 1398 1397 1395 1394 1392 1390 1389
1414 1414 1414 1415 1415 1416 1416 1416 1417 1417 1417 1417 1417 1417 1417 1417 1417 1417 1416 1415 1414 1413 1412 1410 1409 1407 1406 1404 1403 1401 1399 1398 1396 1395 1394 1391 1389 1388
1413 1413 1414 1415 1415 1415 1416 1416 1416 1417 1417 1417 1417 1417 1417 1417 1417 1416 1416 1415 1414 1413 1412 1411 1409 1407 1405 1403 1402 1402 1400 1398 1396 1395 1393 1391 1389 1388
1412 1413 1414 1414 1415 1415 1415 1415 1416 1416 1417 1417 1417 1417 1417 1417 1417 1416 1416 1415 1414 1413 1412 1411 1410 1408 1407 1405 1403 1401 1400 1398 1396 1394 1392 1391 1389 1388
1412 1413 1413 1414 1414 1415 1415 1415 1415 1416 1416 1417 1417 1417 1417 1416 1416 1416 1416 1415 1414 1413 1412 1411 1410 1409 1407 1405 1403 1401 1400 1398 1397 1394 1392 1391 1389 1388
1412 1412 1413 1413 1414 1414 1414 1415 1415 1415 1416 1416 1417 1417 1417 1416 1416 1415 1415 1414 1414 1413 1412 1411 1409 1408 1406 1405 1403 1401 1399 1398 1397 1395 1394 1392 1390 1388
1411 1411 1412 1412 1413 1413 1414 1414 1414 1415 1415 1416 1416 1416 1416 1416 1415 1415 1414 1414 1413 1412 1411 1410 1408 1407 1406 1405 1403 1401 1399 1397 1396 1395 1394 1392 1391 1389